Location: Bonaustraße
(48.4603°N, 11.9280°E)
Time: 06:40:26
(UTC+01:00)

X-37B - Pass Details

Date: 24 January 2021
Orbit: 383 x 391 km, 45.0° (Epoch: 27 February)

Event Time Altitude Azimuth Distance (km) Brightness Sun altitude
Rises 19:25:38 0° 264° (W) 2,274 5.9 -24.1°
Reaches altitude 10° 19:27:45 10° 258° (WSW) 1,420 4.5 -24.5°
Enters shadow 19:29:28 26° 240° (WSW) 801 2.7 -24.8°
